Precipitable_Water
0.26 0.25 0.28 0.31 0.33 0.37 0.36 0.32 0.28 0.28 0.29 0.29 0.34 0.36 0.39 0.41 0.41 0.48 0.56 0.62 0.68 0.71 0.76 0.83 0.79 0.75 0.72 0.69 0.68 0.64 0.58 0.51 0.49 0.51 0.51 0.45 0.43 0.44 0.45 0.47 0.45 0.45 0.44 0.44
0.20 0.25 0.29 0.27 0.33 0.31 0.35 0.33 0.31 0.29 0.28 0.37 0.38 0.38 0.40 0.42 0.44 0.45 0.56 0.63 0.68 0.71 0.72 0.69 0.67 0.65 0.61 0.61 0.61 0.56 0.50 0.48 0.48 0.49 0.43 0.45 0.44 0.49 0.46 0.45 0.43 0.41 0.41 0.41
0.19 0.26 0.26 0.22 0.24 0.26 0.23 0.27 0.30 0.22 0.27 0.33 0.34 0.35 0.36 0.38 0.39 0.42 0.51 0.56 0.61 0.65 0.66 0.61 0.61 0.61 0.58 0.57 0.53 0.49 0.48 0.47 0.45 0.46 0.47 0.50 0.50 0.47 0.44 0.40 0.39 0.38 0.38 0.37
0.27 0.30 0.17 0.24 0.31 0.28 0.25 0.27 0.28 0.27 0.30 0.32 0.35 0.39 0.40 0.41 0.40 0.40 0.45 0.52 0.57 0.60 0.61 0.62 0.62 0.59 0.55 0.52 0.49 0.48 0.47 0.46 0.50 0.53 0.53 0.49 0.44 0.38 0.35 0.34 0.32 0.33 0.33 0.34
0.28 0.25 0.26 0.26 0.28 0.26 0.23 0.24 0.28 0.27 0.31 0.32 0.33 0.35 0.38 0.43 0.43 0.45 0.50 0.54 0.57 0.57 0.55 0.55 0.54 0.52 0.50 0.49 0.48 0.47 0.46 0.50 0.55 0.53 0.46 0.40 0.34 0.33 0.33 0.32 0.29 0.28 0.29 0.30
0.30 0.20 0.15 0.26 0.31 0.33 0.30 0.21 0.33 0.32 0.32 0.33 0.32 0.23 0.33 0.45 0.49 0.52 0.54 0.53 0.50 0.50 0.50 0.50 0.51 0.52 0.51 0.51 0.50 0.51 0.52 0.59 0.50 0.47 0.39 0.35 0.33 0.32 0.32 0.31 0.29 0.29 0.29 0.31
0.26 0.20 0.22 0.34 0.36 0.38 0.24 0.26 0.38 0.37 0.37 0.33 0.29 0.37 0.47 0.50 0.49 0.52 0.49 0.47 0.49 0.51 0.51 0.52 0.53 0.54 0.52 0.52 0.52 0.58 0.55 0.50 0.45 0.40 0.34 0.32 0.31 0.31 0.30 0.30 0.30 0.29 0.28 0.30
0.30 0.24 0.18 0.41 0.36 0.29 0.38 0.42 0.40 0.41 0.41 0.39 0.43 0.46 0.48 0.47 0.46 0.47 0.47 0.48 0.51 0.51 0.52 0.53 0.54 0.54 0.54 0.59 0.59 0.53 0.48 0.41 0.36 0.32 0.31 0.30 0.28 0.27 0.26 0.25 0.26 0.26 0.26 0.26
0.28 0.26 0.40 0.41 0.39 0.43 0.43 0.40 0.42 0.40 0.42 0.44 0.44 0.45 0.44 0.43 0.45 0.47 0.50 0.52 0.53 0.53 0.54 0.56 0.58 0.61 0.57 0.52 0.48 0.42 0.36 0.31 0.29 0.29 0.28 0.29 0.26 0.24 0.23 0.23 0.22 0.23 0.24 0.24
0.38 0.41 0.41 0.42 0.45 0.46 0.47 0.44 0.46 0.47 0.44 0.44 0.45 0.47 0.46 0.46 0.49 0.51 0.52 0.53 0.55 0.55 0.55 0.57 0.59 0.53 0.47 0.41 0.36 0.32 0.28 0.27 0.27 0.26 0.26 0.26 0.25 0.25 0.24 0.22 0.21 0.22 0.23 0.25
0.39 0.42 0.43 0.46 0.48 0.50 0.50 0.49 0.44 0.44 0.45 0.48 0.48 0.46 0.50 0.51 0.52 0.54 0.53 0.55 0.58 0.58 0.55 0.50 0.47 0.41 0.37 0.34 0.33 0.29 0.27 0.26 0.25 0.25 0.24 0.24 0.25 0.26 0.25 0.24 0.25 0.23 0.23 0.25
0.30 0.43 0.42 0.45 0.52 0.54 0.48 0.46 0.46 0.45 0.46 0.49 0.52 0.51 0.52 0.51 0.53 0.55 0.58 0.58 0.53 0.50 0.46 0.40 0.37 0.34 0.33 0.31 0.29 0.26 0.25 0.24 0.24 0.24 0.24 0.25 0.25 0.25 0.27 0.26 0.27 0.27 0.27 0.27
0.42 0.51 0.50 0.52 0.54 0.54 0.49 0.46 0.47 0.49 0.50 0.50 0.53 0.54 0.54 0.54 0.55 0.54 0.52 0.51 0.49 0.44 0.38 0.34 0.31 0.28 0.29 0.29 0.29 0.26 0.25 0.25 0.26 0.27 0.27 0.26 0.27 0.26 0.24 0.25 0.29 0.29 0.29 0.28
0.57 0.54 0.47 0.49 0.43 0.48 0.49 0.51 0.53 0.54 0.55 0.54 0.54 0.54 0.54 0.51 0.50 0.50 0.45 0.42 0.38 0.34 0.31 0.30 0.28 0.26 0.27 0.27 0.26 0.26 0.26 0.27 0.27 0.26 0.26 0.27 0.29 0.29 0.28 0.26 0.26 0.26 0.29 0.30
0.54 0.54 0.49 0.50 0.52 0.52 0.55 0.53 0.51 0.50 0.51 0.52 0.51 0.47 0.45 0.42 0.41 0.40 0.39 0.35 0.32 0.28 0.25 0.22 0.20 0.19 0.25 0.26 0.25 0.25 0.25 0.26 0.27 0.29 0.30 0.33 0.35 0.35 0.31 0.30 0.32 0.28 0.28 0.29
0.53 0.52 0.52 0.52 0.53 0.53 0.53 0.52 0.48 0.49 0.48 0.47 0.44 0.41 0.38 0.36 0.34 0.32 0.31 0.25 0.20 0.17 0.18 0.21 0.22 0.25 0.25 0.24 0.22 0.20 0.20 0.21 0.22 0.24 0.27 0.29 0.32 0.32 0.34 0.31 0.31 0.30 0.27 0.27
0.46 0.45 0.50 0.51 0.52 0.52 0.51 0.51 0.49 0.47 0.45 0.39 0.37 0.37 0.33 0.29 0.25 0.22 0.21 0.20 0.20 0.20 0.22 0.23 0.22 0.22 0.20 0.18 0.16 0.19 0.21 0.22 0.23 0.22 0.20 0.24 0.25 0.29 0.31 0.30 0.28 0.27 0.24 0.27
0.55 0.56 0.58 0.55 0.51 0.50 0.50 0.49 0.47 0.41 0.38 0.37 0.33 0.29 0.25 0.22 0.20 0.19 0.19 0.19 0.19 0.20 0.20 0.20 0.19 0.18 0.18 0.18 0.19 0.18 0.18 0.19 0.20 0.19 0.19 0.19 0.26 0.27 0.29 0.28 0.27 0.25 0.25 0.28
0.59 0.58 0.55 0.52 0.52 0.51 0.48 0.44 0.39 0.36 0.34 0.30 0.27 0.24 0.21 0.20 0.19 0.18 0.18 0.17 0.16 0.15 0.17 0.18 0.18 0.18 0.17 0.16 0.15 0.15 0.15 0.15 0.16 0.17 0.18 0.22 0.25 0.29 0.28 0.27 0.26 0.27 0.27 0.27
0.54 0.54 0.52 0.52 0.52 0.46 0.42 0.40 0.36 0.32 0.30 0.27 0.23 0.20 0.18 0.18 0.16 0.16 0.16 0.16 0.17 0.17 0.17 0.17 0.17 0.15 0.14 0.14 0.16 0.17 0.18 0.19 0.19 0.21 0.23 0.23 0.26 0.25 0.25 0.25 0.24 0.24 0.24 0.24
0.52 0.52 0.51 0.46 0.43 0.42 0.40 0.37 0.33 0.29 0.26 0.24 0.21 0.17 0.16 0.16 0.16 0.15 0.15 0.14 0.16 0.17 0.16 0.16 0.14 0.13 0.13 0.14 0.14 0.15 0.16 0.16 0.17 0.18 0.19 0.20 0.21 0.21 0.21 0.21 0.21 0.21 0.22 0.22
0.49 0.45 0.42 0.41 0.39 0.37 0.35 0.32 0.29 0.26 0.23 0.20 0.18 0.17 0.15 0.15 0.16 0.16 0.17 0.15 0.17 0.16 0.16 0.14 0.13 0.12 0.12 0.13 0.13 0.13 0.14 0.14 0.14 0.16 0.16 0.17 0.17 0.17 0.18 0.18 0.19 0.19 0.19 0.20
0.46 0.45 0.43 0.40 0.36 0.33 0.32 0.29 0.27 0.24 0.22 0.20 0.18 0.16 0.16 0.17 0.17 0.15 0.13 0.16 0.15 0.14 0.14 0.13 0.12 0.11 0.11 0.12 0.12 0.12 0.12 0.12 0.12 0.14 0.15 0.15 0.16 0.16 0.16 0.16 0.17 0.17 0.17 0.18
0.44 0.43 0.40 0.38 0.34 0.31 0.28 0.27 0.26 0.24 0.22 0.20 0.19 0.18 0.18 0.16 0.15 0.16 0.16 0.15 0.14 0.13 0.13 0.13 0.12 0.11 0.11 0.11 0.11 0.11 0.11 0.11 0.11 0.12 0.13 0.14 0.14 0.15 0.15 0.15 0.15 0.16 0.16 0.16
0.42 0.39 0.36 0.33 0.30 0.29 0.27 0.26 0.24 0.22 0.20 0.19 0.19 0.19 0.18 0.18 0.15 0.15 0.14 0.14 0.13 0.12 0.12 0.12 0.12 0.12 0.11 0.11 0.11 0.11 0.11 0.11 0.11 0.12 0.12 0.12 0.12 0.13 0.13 0.14 0.14 0.14 0.15 0.15
0.37 0.34 0.32 0.31 0.30 0.28 0.26 0.23 0.20 0.19 0.19 0.18 0.17 0.17 0.18 0.17 0.15 0.14 0.13 0.13 0.13 0.13 0.12 0.12 0.12 0.12 0.11 0.11 0.11 0.11 0.11 0.11 0.11 0.12 0.12 0.11 0.11 0.11 0.11 0.12 0.12 0.13 0.13 0.13
0.35 0.33 0.31 0.30 0.29 0.26 0.23 0.21 0.19 0.19 0.20 0.18 0.16 0.15 0.16 0.16 0.15 0.14 0.12 0.12 0.12 0.12 0.12 0.11 0.11 0.11 0.11 0.11 0.11 0.11 0.11 0.11 0.11 0.12 0.11 0.11 0.11 0.11 0.11 0.11 0.12 0.12 0.12 0.12
Wind_Speed
13 12 12 14 11 11 11 13 10 13 13 14 14 16 16 15 13 14 16 16 16 17 18 19 21 22 24 25 26 28 29 29 30 31 33 34 36 37 39 41 41 42 43 42
14 14 13 13 14 15 16 15 13 12 13 12 11 8 9 10 14 14 15 16 17 18 20 21 23 24 25 26 27 28 28 29 31 33 34 36 37 39 39 39 40 41 43 43
13 12 13 15 16 17 16 17 17 15 15 13 11 11 13 14 16 17 18 18 19 20 22 23 24 24 25 26 26 27 28 30 32 34 35 36 38 38 38 39 40 42 43 44
11 10 11 14 13 10 10 9 9 9 9 9 10 11 13 14 15 15 16 17 18 19 20 22 23 23 24 25 27 28 30 31 34 36 37 36 37 38 39 40 42 44 45 46
10 12 13 14 10 9 9 8 9 8 9 9 11 11 14 15 14 14 15 16 17 18 19 20 21 22 24 26 27 29 30 32 35 34 35 37 38 39 40 42 43 44 43 43
10 10 12 11 9 8 9 10 9 8 11 11 12 13 16 15 14 14 15 16 17 18 19 20 22 23 25 27 29 31 32 35 34 35 36 37 38 39 42 43 45 44 44 44
12 12 14 15 10 11 9 13 10 10 10 11 13 14 15 13 15 15 16 17 17 19 20 22 23 25 27 29 30 33 32 33 34 35 37 37 38 41 43 45 46 45 45 45
9 10 14 12 9 10 11 9 9 9 11 12 13 15 14 15 16 16 17 19 20 20 22 24 25 27 29 32 31 32 33 34 35 36 37 38 40 42 43 45 45 45 45 45
10 10 10 8 7 6 8 9 11 13 14 15 16 16 16 16 17 18 19 20 21 23 24 26 28 30 30 30 32 32 33 34 36 37 39 40 42 42 44 45 45 45 44 43
8 11 10 8 7 8 9 11 13 15 17 18 18 17 17 17 18 19 20 22 23 25 26 29 29 29 30 32 32 33 35 37 38 39 41 42 43 44 45 46 45 44 43 41
12 9 8 10 12 13 13 13 14 16 18 17 15 17 18 19 20 21 22 24 26 27 26 28 29 31 32 33 34 36 38 38 39 41 43 44 45 46 46 46 45 43 41 40
15 14 14 14 15 14 14 15 16 16 17 16 16 17 18 20 22 23 25 25 25 26 28 30 31 32 33 36 38 39 39 41 43 44 45 46 47 47 46 45 43 42 42 40
16 14 13 13 14 14 15 16 17 17 17 17 18 18 20 21 22 23 23 25 27 28 29 30 32 34 36 38 40 41 43 45 46 47 48 49 48 47 46 45 44 43 41 38
15 14 15 17 17 16 16 16 16 17 17 18 19 20 20 20 21 23 24 24 26 28 30 32 34 36 39 41 43 45 46 48 50 51 52 51 49 47 46 46 46 43 39 36
17 17 16 15 15 16 16 17 17 18 19 19 20 19 19 20 22 23 25 27 28 30 33 36 38 40 41 43 45 47 48 50 51 52 52 51 50 49 49 47 44 41 38 36
15 15 16 16 16 17 17 18 18 18 18 19 19 20 21 22 23 25 26 29 31 34 36 38 39 40 43 45 48 50 51 51 52 52 52 51 50 50 45 45 41 38 38 36
15 17 17 17 18 18 19 18 17 18 18 18 19 21 22 23 24 26 29 32 34 36 37 39 41 45 47 49 51 51 52 52 51 51 52 52 49 45 41 39 37 37 36 33
18 19 19 18 17 17 17 17 17 17 18 19 20 21 23 25 27 29 32 35 36 37 40 42 45 48 49 50 51 52 52 52 53 53 52 48 43 39 36 35 34 33 31 29
18 17 17 16 16 16 16 16 17 18 19 20 21 23 25 27 30 32 35 36 37 40 43 46 48 48 49 51 52 52 52 53 52 50 47 44 39 35 32 31 30 28 27 27
15 15 15 15 15 15 15 16 17 18 20 21 23 25 28 30 32 34 36 37 40 42 46 46 47 49 50 51 51 50 50 49 46 43 39 34 28 27 30 30 30 30 29 29
15 15 14 14 14 15 16 17 18 20 21 23 25 28 30 32 34 36 37 39 42 44 45 45 47 49 49 49 49 48 47 44 42 39 36 34 32 32 31 30 28 27 26 26
14 14 14 14 15 16 17 18 20 21 23 25 27 30 32 33 35 37 38 41 42 44 44 45 47 48 48 47 47 45 43 41 39 37 36 33 30 28 27 26 25 25 25 25
14 14 14 15 16 17 19 20 22 24 26 27 30 32 34 35 37 38 40 41 42 43 44 45 46 47 46 45 44 42 40 39 38 35 33 30 28 28 27 27 27 26 26 25
14 15 16 17 18 19 21 23 24 26 28 30 32 34 35 36 38 40 40 42 43 44 44 45 45 45 44 42 41 39 38 37 35 33 30 30 29 29 28 28 27 27 26 26
16 17 18 19 20 22 24 26 27 29 31 32 34 36 37 38 39 40 41 42 43 44 44 44 44 43 41 40 38 37 36 34 33 31 31 31 30 29 29 28 27 26 26 26
18 19 20 21 23 25 27 28 30 32 33 34 36 37 38 39 40 40 41 42 43 43 43 43 42 40 39 38 36 35 34 32 32 31 31 31 30 30 29 27 26 25 25 25
20 21 22 24 26 28 29 30 32 34 35 35 37 39 40 39 40 40 41 42 42 42 42 41 40 39 37 35 35 34 32 31 31 30 30 30 30 29 27 26 24 24 24 24
Wind_Direction
247 255 260 263 257 268 267 257 248 260 255 265 268 257 253 258 263 265 262 264 263 263 264 268 275 279 284 287 288 290 292 294 297 299 301 303 304 304 304 306 304 304 306 306
251 262 268 267 268 266 264 265 267 271 267 265 258 272 264 270 274 272 266 267 267 266 267 274 278 281 284 286 289 292 293 296 298 301 302 304 305 306 306 307 307 306 306 306
252 264 271 271 260 260 262 257 259 266 267 267 266 267 267 277 281 278 272 271 270 271 273 277 280 283 286 290 292 294 295 298 300 302 303 305 306 307 308 309 309 310 308 308
245 263 265 261 261 246 250 258 259 259 267 269 267 275 282 284 279 281 277 277 279 280 283 285 287 289 291 292 294 296 298 299 301 303 302 304 306 308 309 311 311 311 309 308
246 252 269 274 256 247 245 260 264 258 264 274 278 286 296 291 291 284 282 284 285 286 286 289 290 291 293 296 297 299 301 302 304 304 305 304 305 306 308 311 312 313 311 310
251 250 250 255 243 249 252 257 274 277 277 275 284 286 286 290 292 294 293 291 291 291 293 293 293 294 296 297 299 300 300 302 303 305 306 307 307 306 308 310 311 312 311 311
249 253 265 255 242 254 254 257 269 279 285 287 286 283 284 294 300 298 296 296 296 296 296 296 296 297 298 298 299 301 301 303 304 305 306 307 308 309 310 311 312 311 311 312
244 253 264 242 248 248 253 261 267 282 285 289 289 292 293 297 299 299 299 300 299 298 298 299 299 300 300 300 300 301 303 304 305 306 307 307 309 311 312 313 312 312 312 312
234 247 249 244 233 246 260 271 281 286 291 293 289 290 293 296 297 300 300 300 300 299 300 301 300 301 300 301 302 303 304 305 306 307 307 308 309 311 313 314 313 313 312 312
243 254 244 242 256 266 274 281 289 294 295 295 294 289 291 295 299 300 300 300 300 300 300 301 301 301 301 302 303 303 304 305 306 307 309 309 309 311 312 313 313 313 312 312
247 248 250 267 271 272 281 288 295 303 304 300 295 296 295 297 297 299 300 301 301 302 302 303 303 303 302 303 303 303 304 305 306 307 308 309 309 310 311 312 312 312 312 311
253 255 258 263 272 277 285 290 294 299 305 305 300 296 297 298 298 300 302 302 302 302 303 304 304 304 305 305 304 304 304 305 306 306 307 308 308 308 309 310 311 311 310 308
254 257 258 265 276 280 285 291 295 297 299 299 299 298 298 298 300 301 301 302 303 304 306 307 307 307 307 307 306 304 304 304 304 304 305 306 306 307 308 309 309 309 308 307
250 253 265 271 273 279 285 290 294 296 298 298 298 300 299 300 301 303 306 307 308 308 309 310 310 310 310 309 308 307 306 305 305 305 305 304 304 304 305 306 307 308 307 305
263 266 261 265 272 278 282 287 291 293 295 299 301 303 304 305 306 308 309 309 310 310 311 311 311 311 311 311 310 309 308 307 307 305 304 303 302 301 302 303 303 303 304 303
256 259 263 268 272 276 281 285 287 292 296 299 301 304 305 306 307 309 310 311 312 311 312 312 312 313 313 313 312 310 309 309 308 307 306 304 302 301 297 301 298 300 302 300
255 260 263 267 271 277 283 286 288 292 295 298 301 303 305 306 308 309 311 312 313 313 314 314 314 314 314 313 313 312 311 310 310 309 308 306 302 300 298 298 297 299 301 299
259 261 263 266 270 276 281 285 289 293 296 299 301 304 306 308 309 310 311 312 313 314 315 315 315 315 315 315 315 314 312 311 310 310 309 307 303 299 298 298 298 299 299 298
259 260 264 267 271 276 279 283 289 294 297 299 303 305 307 308 310 311 312 314 315 315 316 316 317 317 317 317 317 316 315 313 312 310 309 308 301 298 297 299 300 301 300 301
257 261 265 269 274 275 280 284 289 295 299 301 304 306 308 310 311 313 314 314 317 317 317 318 319 319 319 319 319 319 320 320 317 315 313 314 314 305 304 302 300 299 298 298
257 260 263 267 273 279 284 287 291 296 299 303 306 308 309 311 313 314 314 315 317 318 318 319 320 321 321 321 321 321 321 320 319 319 317 315 309 306 304 302 301 300 300 300
256 258 262 267 274 281 286 290 295 298 301 305 308 310 311 312 313 314 316 317 317 319 319 320 321 322 322 323 323 324 324 324 322 319 317 315 312 310 308 306 304 303 302 301
256 260 265 271 277 283 288 292 297 301 303 305 308 310 311 312 314 315 315 317 318 319 319 321 322 323 323 324 325 325 326 326 326 324 321 318 315 312 309 306 303 301 300 299
260 266 272 277 280 288 293 295 298 302 304 306 308 310 311 313 313 315 315 317 318 319 320 320 321 323 324 324 325 326 326 326 327 327 325 322 319 314 311 307 304 301 298 298
267 272 277 282 287 291 295 298 300 303 305 307 308 310 311 312 313 314 316 316 318 319 320 321 321 322 323 324 325 325 326 327 327 327 326 325 323 319 315 311 306 303 300 298
274 279 283 287 290 294 297 299 300 303 304 306 308 309 310 311 313 314 315 317 318 319 320 321 321 322 323 323 324 325 326 327 327 327 327 327 326 324 320 315 311 306 303 300
280 282 285 290 293 296 298 300 301 303 304 306 307 309 310 311 312 313 315 317 318 318 320 320 321 321 322 322 324 324 325 326 327 328 328 328 329 328 327 324 320 315 311 307